TimeEDT,TemperatureF,Dew PointF,Humidity,Sea Level PressureIn,VisibilityMPH,Wind Direction,Wind SpeedMPH,Gust SpeedMPH,PrecipitationIn,Events,Conditions,WindDirDegrees,DateUTC
12:35 AM,73.4,62.6,69,30.03,10.0,SSE,3.5,-,N/A,,Clear,150,2013-05-30 04:35:00
12:55 AM,73.4,60.8,65,30.04,10.0,SE,4.6,-,N/A,,Clear,130,2013-05-30 04:55:00
1:15 AM,71.6,60.8,69,30.04,10.0,SE,4.6,-,N/A,,Clear,130,2013-05-30 05:15:00
2:15 AM,73.4,60.8,65,30.05,10.0,SSE,4.6,-,N/A,,Clear,150,2013-05-30 06:15:00
2:35 AM,73.4,60.8,65,30.05,10.0,SSE,8.1,-,N/A,,Clear,150,2013-05-30 06:35:00
2:55 AM,73.4,60.8,65,30.05,10.0,SSE,8.1,-,N/A,,Clear,160,2013-05-30 06:55:00
3:15 AM,73.4,60.8,65,30.05,10.0,SSE,6.9,-,N/A,,Clear,160,2013-05-30 07:15:00
3:35 AM,73.4,60.8,65,30.05,10.0,South,8.1,-,N/A,,Partly Cloudy,170,2013-05-30 07:35:00
3:55 AM,73.4,60.8,65,30.05,10.0,South,11.5,-,N/A,,Scattered Clouds,180,2013-05-30 07:55:00
4:15 AM,73.4,60.8,65,30.04,10.0,SSE,6.9,-,N/A,,Partly Cloudy,160,2013-05-30 08:15:00
4:35 AM,73.4,60.8,65,30.05,10.0,SSE,8.1,-,N/A,,Clear,160,2013-05-30 08:35:00
4:55 AM,73.4,60.8,65,30.05,10.0,SSE,5.8,-,N/A,,Clear,160,2013-05-30 08:55:00
5:15 AM,71.6,60.8,69,30.05,10.0,SSE,5.8,-,N/A,,Clear,150,2013-05-30 09:15:00
5:35 AM,71.6,60.8,69,30.05,10.0,SSE,6.9,-,N/A,,Clear,160,2013-05-30 09:35:00
5:55 AM,71.6,60.8,69,30.06,10.0,South,5.8,-,N/A,,Clear,170,2013-05-30 09:55:00
6:15 AM,71.6,60.8,69,30.06,10.0,South,8.1,-,N/A,,Clear,170,2013-05-30 10:15:00
6:35 AM,71.6,60.8,69,30.07,10.0,SSE,6.9,-,N/A,,Clear,160,2013-05-30 10:35:00
6:55 AM,71.6,60.8,69,30.07,10.0,SSE,6.9,-,N/A,,Clear,160,2013-05-30 10:55:00
7:15 AM,71.6,60.8,69,30.08,10.0,SSE,6.9,-,N/A,,Clear,150,2013-05-30 11:15:00
7:35 AM,73.4,60.8,65,30.09,10.0,SSE,5.8,-,N/A,,Partly Cloudy,160,2013-05-30 11:35:00
7:55 AM,73.4,60.8,65,30.09,10.0,SSE,8.1,-,N/A,,Clear,160,2013-05-30 11:55:00
8:15 AM,73.4,60.8,65,30.09,10.0,SSE,9.2,-,N/A,,Clear,160,2013-05-30 12:15:00
8:35 AM,73.4,60.8,65,30.09,10.0,SSE,8.1,-,N/A,,Clear,160,2013-05-30 12:35:00
8:55 AM,75.2,62.6,65,30.09,10.0,South,9.2,-,N/A,,Partly Cloudy,170,2013-05-30 12:55:00
9:15 AM,77.0,62.6,61,30.09,10.0,SSE,12.7,16.1,N/A,,Partly Cloudy,160,2013-05-30 13:15:00
9:35 AM,75.2,62.6,65,30.10,10.0,SSE,10.4,19.6,N/A,,Clear,160,2013-05-30 13:35:00
9:55 AM,78.8,62.6,57,30.09,10.0,South,12.7,20.7,N/A,,Clear,170,2013-05-30 13:55:00
10:15 AM,78.8,64.4,61,30.09,10.0,South,13.8,19.6,N/A,,Clear,170,2013-05-30 14:15:00
10:35 AM,80.6,64.4,58,30.08,10.0,South,16.1,21.9,N/A,,Clear,180,2013-05-30 14:35:00
10:55 AM,80.6,64.4,58,30.07,10.0,South,19.6,-,N/A,,Clear,180,2013-05-30 14:55:00
11:15 AM,80.6,64.4,58,30.08,10.0,South,18.4,28.8,N/A,,Partly Cloudy,180,2013-05-30 15:15:00
11:35 AM,80.6,64.4,58,30.08,10.0,South,21.9,27.6,N/A,,Mostly Cloudy,180,2013-05-30 15:35:00
11:55 AM,80.6,64.4,58,30.08,10.0,South,19.6,26.5,N/A,,Scattered Clouds,190,2013-05-30 15:55:00
12:15 PM,82.4,64.4,54,30.07,10.0,SSW,20.7,29.9,N/A,,Clear,200,2013-05-30 16:15:00
12:55 PM,82.4,66.2,58,30.07,10.0,South,17.3,-,N/A,,Partly Cloudy,180,2013-05-30 16:55:00
1:15 PM,82.4,66.2,58,30.07,10.0,South,18.4,28.8,N/A,,Partly Cloudy,180,2013-05-30 17:15:00
1:35 PM,82.4,66.2,58,30.07,10.0,South,17.3,25.3,N/A,,Scattered Clouds,170,2013-05-30 17:35:00
1:55 PM,82.4,66.2,58,30.06,10.0,SSE,17.3,28.8,N/A,,Partly Cloudy,160,2013-05-30 17:55:00
2:15 PM,82.4,66.2,58,30.05,10.0,South,19.6,28.8,N/A,,Partly Cloudy,180,2013-05-30 18:15:00
2:55 PM,84.2,66.2,55,30.04,10.0,SSE,16.1,27.6,N/A,,Partly Cloudy,160,2013-05-30 18:55:00
3:15 PM,84.2,66.2,55,30.03,10.0,South,18.4,25.3,N/A,,Scattered Clouds,170,2013-05-30 19:15:00
3:36 PM,84.2,66.2,55,30.02,10.0,South,21.9,27.6,N/A,,Partly Cloudy,180,2013-05-30 19:36:00
3:55 PM,84.2,66.2,55,30.02,10.0,South,13.8,26.5,N/A,,Partly Cloudy,170,2013-05-30 19:55:00
4:15 PM,84.2,66.2,55,30.01,10.0,South,23.0,29.9,N/A,,Scattered Clouds,180,2013-05-30 20:15:00
4:55 PM,84.2,66.2,55,30.00,10.0,South,17.3,24.2,N/A,,Partly Cloudy,180,2013-05-30 20:55:00
5:15 PM,84.2,66.2,55,30.00,10.0,South,18.4,25.3,N/A,,Clear,180,2013-05-30 21:15:00
5:35 PM,82.4,66.2,58,29.99,10.0,SSE,13.8,21.9,N/A,,Partly Cloudy,160,2013-05-30 21:35:00
5:55 PM,84.2,66.2,55,29.99,10.0,SSE,12.7,25.3,N/A,,Clear,150,2013-05-30 21:55:00
6:15 PM,82.4,66.2,58,29.98,10.0,SSE,8.1,19.6,N/A,,Clear,160,2013-05-30 22:15:00
6:35 PM,84.2,66.2,55,29.97,10.0,SSE,13.8,21.9,N/A,,Partly Cloudy,150,2013-05-30 22:35:00
6:55 PM,84.2,66.2,55,29.97,10.0,SSE,12.7,19.6,N/A,,Partly Cloudy,160,2013-05-30 22:55:00
7:15 PM,82.4,66.2,58,29.98,10.0,SSE,10.4,-,N/A,,Partly Cloudy,160,2013-05-30 23:15:00
7:35 PM,80.6,66.2,61,29.98,8.0,SSE,10.4,16.1,N/A,Thunderstorm,Thunderstorm,150,2013-05-30 23:35:00
7:55 PM,80.6,66.2,61,29.98,10.0,SSE,11.5,23.0,N/A,Thunderstorm,Scattered Clouds,160,2013-05-30 23:55:00
8:15 PM,80.6,66.2,61,29.99,10.0,South,12.7,-,N/A,,Scattered Clouds,170,2013-05-31 00:15:00
8:35 PM,80.6,66.2,61,29.99,10.0,South,8.1,-,N/A,,Partly Cloudy,170,2013-05-31 00:35:00
8:55 PM,78.8,66.2,65,29.98,10.0,SSE,6.9,-,N/A,,Clear,150,2013-05-31 00:55:00
9:15 PM,78.8,66.2,65,29.97,10.0,SSE,6.9,-,N/A,,Clear,150,2013-05-31 01:15:00
9:35 PM,78.8,66.2,65,29.99,10.0,SSE,6.9,-,N/A,,Clear,150,2013-05-31 01:35:00
9:55 PM,78.8,64.4,61,30.00,10.0,SSE,8.1,-,N/A,,Clear,150,2013-05-31 01:55:00
10:15 PM,78.8,64.4,61,30.01,10.0,SSE,6.9,-,N/A,,Clear,160,2013-05-31 02:15:00
11:55 PM,77.0,64.4,65,30.02,10.0,South,8.1,17.3,N/A,,Clear,170,2013-05-31 03:55:00